TimeEDT,TemperatureF,Dew PointF,Humidity,Sea Level PressureIn,VisibilityMPH,Wind Direction,Wind SpeedMPH,Gust SpeedMPH,PrecipitationIn,Events,Conditions,WindDirDegrees,DateUTC
12:24 AM,82.4,68.0,62,30.07,10.0,ENE,10.4,-,N/A,,Mostly Cloudy,60,2013-04-21 04:24:00
12:40 AM,80.6,69.8,70,30.07,10.0,Variable,4.6,-,N/A,,Overcast,0,2013-04-21 04:40:00
12:53 AM,78.1,69.1,74,30.07,1.5,West,3.5,-,0.01,Rain-Thunderstorm,Heavy Thunderstorms and Rain,260,2013-04-21 04:53:00
1:01 AM,77.0,69.8,78,30.08,3.0,West,8.1,-,0.01,Rain-Thunderstorm,Thunderstorms and Rain,260,2013-04-21 05:01:00
1:25 AM,73.4,64.4,73,30.06,5.0,WNW,3.5,-,0.03,Rain,Rain,290,2013-04-21 05:25:00
1:53 AM,73.9,66.0,76,30.06,10.0,Calm,Calm,-,0.04,Rain,Light Rain,0,2013-04-21 05:53:00
2:53 AM,73.9,69.1,85,30.04,9.0,Calm,Calm,-,0.02,,Clear,0,2013-04-21 06:53:00
3:53 AM,80.1,71.1,74,30.02,10.0,NE,9.2,-,0.01,,Partly Cloudy,40,2013-04-21 07:53:00
4:19 AM,80.6,71.6,74,30.02,10.0,ENE,8.1,-,0.01,,Mostly Cloudy,60,2013-04-21 08:19:00
4:29 AM,78.8,71.6,78,30.02,10.0,NE,4.6,-,0.01,,Scattered Clouds,50,2013-04-21 08:29:00
4:53 AM,79.0,72.0,79,30.01,10.0,NE,6.9,-,0.01,,Partly Cloudy,50,2013-04-21 08:53:00
5:53 AM,79.0,70.0,74,30.03,10.0,ESE,5.8,-,0.01,,Clear,110,2013-04-21 09:53:00
6:53 AM,81.0,69.1,67,30.04,10.0,SE,8.1,-,N/A,,Clear,130,2013-04-21 10:53:00
7:53 AM,80.1,71.1,74,30.04,10.0,SSE,10.4,16.1,N/A,,Partly Cloudy,160,2013-04-21 11:53:00
8:53 AM,82.0,69.1,65,30.06,10.0,South,6.9,-,N/A,,Clear,170,2013-04-21 12:53:00
9:53 AM,84.0,69.1,61,30.07,10.0,SSE,3.5,-,0.01,,Clear,160,2013-04-21 13:53:00
10:53 AM,86.0,69.1,57,30.07,10.0,Variable,3.5,-,N/A,,Clear,0,2013-04-21 14:53:00
11:53 AM,87.1,68.0,53,30.07,10.0,Variable,3.5,-,N/A,,Clear,0,2013-04-21 15:53:00
12:53 PM,88.0,68.0,51,30.06,10.0,Variable,4.6,-,N/A,,Partly Cloudy,0,2013-04-21 16:53:00
1:53 PM,87.1,70.0,57,30.05,10.0,Variable,3.5,-,N/A,,Clear,0,2013-04-21 17:53:00
2:53 PM,86.0,70.0,59,30.02,10.0,ESE,8.1,-,N/A,,Clear,120,2013-04-21 18:53:00
3:53 PM,87.1,70.0,57,30.01,10.0,ESE,5.8,-,N/A,,Clear,110,2013-04-21 19:53:00
4:53 PM,84.0,70.0,63,30.01,10.0,East,11.5,-,N/A,,Mostly Cloudy,90,2013-04-21 20:53:00
5:53 PM,82.9,68.0,60,29.99,10.0,East,8.1,-,N/A,,Clear,90,2013-04-21 21:53:00
6:53 PM,82.9,70.0,65,30.00,10.0,ESE,5.8,-,N/A,,Clear,110,2013-04-21 22:53:00
7:53 PM,82.0,71.1,69,30.02,10.0,East,4.6,-,N/A,,Clear,80,2013-04-21 23:53:00
8:53 PM,82.0,70.0,67,30.03,10.0,ENE,4.6,-,N/A,,Mostly Cloudy,60,2013-04-22 00:53:00
9:53 PM,82.0,69.1,65,30.03,10.0,ENE,5.8,-,N/A,,Clear,70,2013-04-22 01:53:00
10:53 PM,82.0,69.1,65,30.03,10.0,East,4.6,-,N/A,,Clear,80,2013-04-22 02:53:00
11:53 PM,82.0,70.0,67,30.04,10.0,East,4.6,-,N/A,,Scattered Clouds,90,2013-04-22 03:53:00